Regional Weather Roundup
Issued by NWS

Home | Current Version | Previous Version | Text Only | Print | Product List | Glossary Off
Versions: 1 2 3 4 5 6 7 8 9 10 11 12 13 14 15 16 17 18 19 20 21 22 23 24 25 26 27 28 29 30 31 32 33 34 35 36 37 38 39 40 41 42 43 44 45 46 47 48 49 50

000
ASUS43 KDMX 281207
RWRIA

WEATHER ROUNDUP FOR IOWA
NATIONAL WEATHER SERVICE DES MOINES IA
600 AM CST FRI NOV 28 2014

NOTE: "FAIR" INDICATES FEW OR NO CLOUDS BELOW 12,000 FEET WITH NO
SIGNIFICANT WEATHER AND/OR OBSTRUCTIONS TO VISIBILITY.

* - THESE STATIONS ARE NOT NWS STATIONS...THUS NOT UNDER NWS
QUALITY CONTROL.  THEY ALSO DO NOT REPORT WEATHER SUCH
AS PRECIPITATION OR FOG.

IAZ001>003-012>014-020>022-031>034-043>046-281300-
   NORTHWEST IOWA

CITY           SKY/WX    TMP DP  RH WIND       PRES   REMARKS
CARROLL *      CLEAR     16  14  93 SE10      29.94F WCI   3
CHEROKEE *     MOCLDY    20  19  93 S8        29.89F WCI  11
DENISON *      CLEAR     27  23  86 S10       29.91F WCI  17
LE MARS *      CLEAR     25  21  86 S12       29.87F WCI  14
ORANGE CITY *  CLEAR     25  19  80 S9        29.85F WCI  15
SHELDON *      CLEAR     18  16  93 SE8       29.87F WCI   7
SIOUX CITY     PTCLDY    25  20  81 SE10G21   29.89F WCI  15
6HR MIN TEMP:  22; 6HR MAX TEMP:  25;

SPENCER        PTCLDY    14  10  84 SE9       29.91F WCI   2
6HR MIN TEMP:  12; 6HR MAX TEMP:  14;

STORM LAKE *   CLEAR     16  12  86 SE12      29.89F WCI   3
$$

IAZ055>058-069>071-079>083-090>094-281300-
   SOUTHWEST IOWA

CITY           SKY/WX    TMP DP  RH WIND       PRES   REMARKS
ATLANTIC *     CLEAR     27  21  80 S7        29.96F WCI  19
AUDUBON *      CLEAR     25  18  74 S9        29.94F WCI  15
CLARINDA *     CLEAR     27  23  86 S6        29.99F WCI  20
COUNCIL BLFS * CLEAR     25  23  93 S10       29.92F WCI  15
CRESTON *      CLEAR     27  23  86 S12       29.99R WCI  16
HARLAN  *      CLEAR     27  23  86 S7        29.97F WCI  19
LAMONI         PTCLDY    26  22  84 S13       30.00F WCI  15
6HR MIN TEMP:  23; 6HR MAX TEMP:  26;

RED OAK *      CLEAR     28  23  80 S9        29.97S WCI  20
SHENANDOAH *   CLEAR     28  23  80 S3        29.98S
$$

IAZ047>049-059>061-072>074-084-281300-
   CENTRAL IOWA

CITY           SKY/WX    TMP DP  RH WIND       PRES   REMARKS
AMES           PTCLDY    15   9  76 SE10      30.02F WCI   2
6HR MIN TEMP:  11; 6HR MAX TEMP:  15;

ANKENY *       PTCLDY    18  12  79 SE9       30.04F WCI   6
CHARITON *     MOCLDY    25  21  86 SE12      30.02F WCI  14
DES MOINES     PTCLDY    20  13  74 E9        30.04F WCI   9
6HR MIN TEMP:  14; 6HR MAX TEMP:  21;

GRINNELL*      MOCLDY    14  10  85 SE12      30.06F WCI   0
KNOXVILLE *    CLEAR     18  12  79 E9        30.03F WCI   6
MARSHALLTOWN   MOCLDY    16  10  77 SE17      30.02F WCI   0
6HR MIN TEMP:  12; 6HR MAX TEMP:  16;

PELLA *        PTCLDY    18  14  83 SE13      30.08F WCI   5
PERRY *          N/A     19  18  93 SE13      29.99F WCI   7
$$

IAZ004>006-015-016-023>025-035-036-281300-
   NORTH CENTRAL IOWA

CITY           SKY/WX    TMP DP  RH WIND       PRES   REMARKS
ALGONA *       CLEAR     16  12  86 SE15      29.95F WCI   1
CLARION *      MOCLDY    18  16  93 S20       29.97F WCI   1
ESTHERVILLE    PTCLDY    12   9  87 SE9       29.94R WCI   0
6HR MIN TEMP:   9; 6HR MAX TEMP:  12;

FORT DODGE *   MOCLDY    18  12  79 S10       29.96F WCI   6
MASON CITY     CLEAR     13   6  74 SE15      30.01F WCI  -3
6HR MIN TEMP:  10; 6HR MAX TEMP:  14;

FOREST CITY *  CLEAR     14  10  85 SE12      29.98F WCI   0
IOWA FALLS *   CLOUDY    16  10  79 SE14      30.01F WCI   1
$$

IAZ007>011-017>019-026>030-037>042-050>054-066-281300-
   NORTHEAST IOWA

CITY           SKY/WX    TMP DP  RH WIND       PRES   REMARKS
CEDAR RAPIDS   PTCLDY    15   8  73 SE14      30.11F WCI   0
6HR MIN TEMP:  12; 6HR MAX TEMP:  15;

CHARLES CITY * MOCLDY    16   5  62 SE17G24   30.04F WCI   0
CLINTON *      CLOUDY    16  10  79 SE13      30.24F WCI   2
DECORAH *      CLOUDY    14   9  79 SE12G20   30.06F WCI   0
DUBUQUE        CLOUDY    14   9  80 SE12      30.16F WCI   0
6HR MIN TEMP:  12; 6HR MAX TEMP:  14; 6HR PCP: TRACE;

MONTICELLO *   MOCLDY    16  10  79 SE14G21   30.16F WCI   1
OELWEIN *      CLOUDY    16   7  67 SE22      30.08F WCI  -2
WATERLOO       MOCLDY    17   7  64 SE16G23   30.06F WCI   2
6HR MIN TEMP:  12; 6HR MAX TEMP:  17;

$$

IAZ064-065-067-068-078-281300-
   EAST CENTRAL IOWA

CITY           SKY/WX    TMP DP  RH WIND       PRES   REMARKS
DAVENPORT      CLOUDY    17   8  67 SE16      30.21F WCI   2
6HR MIN TEMP:  13; 6HR MAX TEMP:  17; 6HR PCP: TRACE;

IOWA CITY      PTCLDY    14   8  77 SE12      30.17F WCI   0
6HR MIN TEMP:  12; 6HR MAX TEMP:  15; 6HR PCP: TRACE;

MT. PLEASANT * PTCLDY    16  10  79 SE12      30.16F WCI   3
MUSCATINE *    PTCLDY    18   9  68 SE12G18   30.20F WCI   5
QUAD CITIES    CLOUDY    18   8  65 SE10      30.22F WCI   6
6HR MIN TEMP:  13; 6HR MAX TEMP:  18; 6HR PCP: TRACE;

$$

IAZ062-063-075>077-085>089-095>099-281300-
   SOUTHEAST IOWA

CITY           SKY/WX    TMP DP  RH WIND       PRES   REMARKS
BURLINGTON     PTCLDY    17  11  77 SE9       30.19F WCI   6
6HR MIN TEMP:  14; 6HR MAX TEMP:  17;

FAIRFIELD *    CLEAR     18  10  73 SE14      30.12F WCI   4
FORT MADISON * CLEAR     19  16  86 SE14      30.18F WCI   6
KEOKUK *       PTCLDY    21  18  86 SE8G14    30.16F WCI  12
OSKALOOSA *      N/A     16  13  86 SE15      30.09F WCI   2
CENTERVILLE *  CLEAR     23  19  86 SE10      30.06F WCI  12
OTTUMWA        PTCLDY    19  13  77 SE9       30.09F WCI   8
6HR MIN TEMP:  13; 6HR MAX TEMP:  19;

WASHINGTON *   CLEAR     16  14  93 SE15      30.14F WCI   1
$$

ABBREVIATIONS USED IN REMARKS
   TC - TEMPERATURES IN CELSIUS
  WCI - WIND CHILL INDEX
   HX - HEAT INDEX
  VSB - VISIBILITY
$$



USA.gov is the U.S. government's official web portal to all federal, state and local government web resources and services.